Dewpoint
59 58 58 57 58 58 58 59 60 60 58 59 59 60 59 58 56 55 58 59 60 62 59 59 60 60 59 57 56 56 57 55 56
58 59 57 57 59 59 59 58 60 60 60 60 60 61 62 56 55 54 57 60 63 62 60 59 59 58 57 57 56 56 56 56 56
59 59 59 60 59 60 60 60 59 59 60 60 60 59 62 58 57 55 54 60 63 62 62 60 59 59 58 57 58 57 56 56 56
62 60 60 61 60 61 62 63 62 61 60 60 60 62 62 59 60 56 53 55 62 63 63 61 60 60 59 58 57 58 58 57 56
63 64 63 61 61 62 63 63 63 62 62 61 62 62 62 58 59 59 56 57 59 63 63 63 61 60 60 60 59 58 59 58 58
60 61 63 63 63 62 62 63 63 64 63 62 62 62 54 56 58 58 59 60 59 60 63 63 63 62 61 60 60 60 58 58 58
60 60 61 62 62 63 63 63 63 64 61 60 59 56 54 53 54 56 60 62 61 60 60 62 62 62 63 61 60 60 61 60 58
60 60 59 59 59 58 59 59 59 59 59 59 58 57 55 53 52 54 59 61 62 61 59 60 61 62 63 63 62 61 60 60 60
59 59 59 59 58 58 58 57 57 58 58 58 57 56 55 53 52 52 56 57 58 59 60 59 59 61 62 63 65 64 63 63 63
59 59 58 58 58 57 57 57 56 56 56 56 56 56 55 54 53 52 54 55 57 57 57 58 58 58 60 62 64 65 65 64 63
59 58 58 58 58 57 57 57 57 57 56 56 56 55 55 54 54 53 52 55 56 58 59 58 58 59 59 60 63 64 65 65 64
59 58 58 58 57 57 57 57 57 56 56 56 55 55 54 54 54 53 52 52 55 56 59 60 60 59 59 59 62 62 62 64 65
58 58 57 57 57 56 56 55 55 55 55 54 54 54 54 53 53 53 53 52 51 53 56 58 60 60 60 60 60 62 62 62 62
57 56 56 56 56 56 55 54 54 54 55 54 54 54 54 54 53 53 53 53 53 52 54 55 56 59 60 61 61 63 62 62 61
56 56 56 56 56 56 56 56 56 55 55 54 54 55 55 55 54 54 53 53 53 53 53 53 52 55 56 58 60 62 63 63 62
50 50 49 51 52 53 53 55 55 54 56 55 54 55 55 55 55 55 55 54 54 54 54 53 53 52 56 56 58 59 61 63 63
42 44 44 44 45 44 44 47 48 50 52 53 54 51 51 52 55 55 55 55 55 55 54 54 54 54 53 54 56 58 59 60 61
42 43 43 43 43 43 43 43 45 43 45 47 50 48 46 50 51 52 54 54 55 55 55 55 55 54 54 55 54 55 56 58 60
40 41 42 41 42 40 41 40 42 44 43 44 42 47 47 44 43 43 48 49 51 51 52 53 54 55 55 55 54 54 55 57 59
38 39 40 39 38 38 39 39 40 41 41 42 43 44 45 45 46 43 42 44 45 48 49 50 51 53 54 56 56 56 57 58 60
Lifted_Index
6 6 7 8 8 8 8 8 7 7 7 7 7 7 7 8 8 8 7 6 6 5 6 7 7 7 8 8 8 9 9 9 9
6 6 7 7 7 8 8 8 7 7 7 7 7 7 7 7 8 9 8 7 6 5 6 7 7 7 8 8 8 9 9 9 9
6 6 6 7 7 7 7 7 7 7 7 7 7 7 7 7 8 9 9 7 6 5 6 6 7 7 8 8 8 9 9 9 9
5 5 6 6 7 7 6 6 6 7 7 7 7 7 7 7 7 8 9 9 7 6 5 6 6 7 7 8 8 8 9 9 9
5 5 6 6 6 6 6 5 5 6 6 7 7 7 7 7 7 8 9 9 8 6 5 5 6 6 7 7 7 8 8 8 8
6 6 6 6 6 6 6 5 5 5 6 6 7 8 8 8 8 8 8 9 8 7 6 5 5 5 6 6 7 7 7 8 8
6 7 7 7 6 6 6 6 6 5 6 7 7 8 9 9 9 9 8 8 8 7 7 6 5 5 5 5 6 6 6 7 7
7 7 7 7 7 7 7 7 7 6 7 7 8 8 9 10 10 10 9 9 8 8 7 7 6 5 5 4 5 5 5 6 6
7 7 7 8 8 8 8 7 7 7 7 7 8 8 9 9 9 9 10 9 9 9 8 8 7 6 5 4 3 3 4 4 4
7 7 7 7 7 7 7 6 6 6 6 7 7 7 7 7 8 8 8 9 9 9 9 8 8 7 6 4 3 2 2 3 3
7 7 7 7 6 6 5 5 5 5 5 5 5 6 6 6 6 6 7 7 7 8 8 8 8 7 6 5 4 3 2 2 2
6 6 5 5 5 4 4 4 4 4 4 4 5 5 5 5 5 5 5 5 6 6 6 6 6 6 6 5 4 3 2 1 1
5 5 4 4 4 4 4 4 4 4 4 5 5 5 5 5 4 4 4 4 5 5 5 5 5 5 5 5 4 3 2 2 1
4 4 4 3 3 3 4 4 5 5 5 5 5 5 5 5 4 4 4 4 4 4 4 4 4 4 4 4 4 3 2 2 2
4 4 4 4 4 4 5 5 6 6 6 6 6 6 5 5 5 5 4 4 4 4 4 4 4 4 4 4 3 3 2 1 1
5 5 6 6 7 7 8 8 8 8 7 7 7 7 6 6 6 5 5 4 4 4 4 3 3 3 3 3 3 3 2 2 1
8 9 9 10 10 11 11 11 11 10 10 9 8 8 8 7 6 6 5 5 4 4 4 4 3 3 3 3 3 3 2 2 2
12 12 12 13 13 13 14 14 14 13 12 12 11 10 10 9 9 8 7 6 6 6 5 4 4 4 3 3 3 2 2 2 2
13 13 14 14 14 14 15 15 15 15 15 14 13 12 12 12 11 11 10 9 8 8 7 6 5 4 4 3 3 2 2 2 1
13 13 14 14 14 15 15 16 16 16 16 15 15 14 13 13 12 12 12 11 10 9 8 7 6 5 4 3 3 2 2 2 1